TimeEEST,TemperatureF,Dew PointF,Humidity,Sea Level PressureIn,VisibilityMPH,Wind Direction,Wind SpeedMPH,Gust SpeedMPH,PrecipitationIn,Events,Conditions,WindDirDegrees,DateUTC
12:50 AM,46.4,42.8,87,30.24,-9999.0,North,-9999.0,-,N/A,,Scattered Clouds,0,2012-10-12 21:50:00
1:50 AM,46.4,42.8,87,30.24,-9999.0,North,-9999.0,-,N/A,,Scattered Clouds,0,2012-10-12 22:50:00
3:00 AM,45,40,78,,12,Calm,Calm,,,,Partly Cloudy,,2012-10-13 00:00:00
3:50 AM,44.6,41.0,87,30.24,-9999.0,North,-9999.0,-,N/A,,Scattered Clouds,0,2012-10-13 00:50:00
4:50 AM,42.8,41.0,93,30.24,-9999.0,North,-9999.0,-,N/A,,Partly Cloudy,0,2012-10-13 01:50:00
5:50 AM,42.8,41.0,93,30.24,-9999.0,North,-9999.0,-,N/A,,Scattered Clouds,0,2012-10-13 02:50:00
6:50 AM,41.0,41.0,100,30.24,-9999.0,North,-9999.0,-,N/A,,Clear,0,2012-10-13 03:50:00
7:50 AM,46.4,42.8,87,30.27,-9999.0,North,-9999.0,-,N/A,,Clear,0,2012-10-13 04:50:00
9:00 AM,50,43,68,,6,Calm,Calm,,,,Scattered Clouds,,2012-10-13 06:00:00
9:50 AM,51.8,44.6,76,30.24,-9999.0,Calm,Calm,-,N/A,,Clear,0,2012-10-13 06:50:00
10:50 AM,55.4,44.6,67,30.24,6.2,Calm,Calm,-,N/A,,Mostly Cloudy,0,2012-10-13 07:50:00
11:50 AM,59.0,42.8,55,30.24,6.2,Calm,Calm,-,N/A,,Mostly Cloudy,0,2012-10-13 08:50:00
12:50 PM,60.8,42.8,52,30.21,-9999.0,Variable,4.6,-,N/A,,Clear,0,2012-10-13 09:50:00
1:50 PM,62.6,41.0,45,30.18,-9999.0,South,3.5,-,N/A,,Clear,170,2012-10-13 10:50:00
2:50 PM,62.6,39.2,42,30.18,-9999.0,Variable,1.2,-,N/A,,Clear,0,2012-10-13 11:50:00
3:00 PM,63,40,30,,6,SSW,1.2,,,,Clear,200,2012-10-13 12:00:00
3:50 PM,64.4,39.2,40,30.18,-9999.0,Calm,Calm,-,N/A,,Clear,0,2012-10-13 12:50:00
4:50 PM,62.6,42.8,48,30.18,-9999.0,Calm,Calm,-,N/A,,Clear,0,2012-10-13 13:50:00
5:50 PM,57.2,46.4,67,30.18,-9999.0,Variable,1.2,-,N/A,,Clear,0,2012-10-13 14:50:00
6:50 PM,55.4,48.2,77,30.18,-9999.0,Variable,1.2,-,N/A,,Clear,0,2012-10-13 15:50:00
7:50 PM,51.8,48.2,88,30.18,-9999.0,Variable,1.2,-,N/A,,Clear,0,2012-10-13 16:50:00
8:50 PM,50.0,46.4,87,30.18,-9999.0,Variable,1.2,-,N/A,,Clear,0,2012-10-13 17:50:00
9:00 PM,50,47,85,,12,West,1.2,,,,,260,2012-10-13 18:00:00
10:50 PM,48.2,46.4,93,30.18,-9999.0,Variable,1.2,-,N/A,,Clear,0,2012-10-13 19:50:00